Simultaneous Nadir Overpasses (SNOs) Predictions

Prediction of SNOs between GOES-15 and NPP Satellite Orbit:

Table of predicted SNOs for the next 14.0 days since TLE Epoch: 12/13/2013
Index Date Time (GOES-15) GOES-15 Lat,Lon NPP Lat,Lon Distance(km) Time Diff (sec)
1 12/13/2013 22:42:14 0.09,-135.25 -0.77,-139.04 432.58 80
2 12/14/2013 22:26:11 0.07,-135.23 0.22,-134.51 81.58 80
3 12/17/2013 10:29:19 -0.08,-135.20 -0.09,-135.26 6.23 80
4 12/19/2013 22:29:54 0.09,-135.10 -0.11,-136.03 105.18 80
5 12/20/2013 22:13:50 0.08,-135.08 0.89,-131.50 408.20 80
6 12/22/2013 10:33:00 -0.10,-135.07 0.28,-136.77 193.95 80
7 12/23/2013 10:16:57 -0.09,-135.04 -0.72,-132.24 319.26 80
8 12/24/2013 22:36:15 0.11,-134.95 -0.46,-137.54 294.72 80
9 12/25/2013 22:20:12
